Weather History for Starkville, MS

Change the Weather History Date:

Thursday, October 11, 2012

  Actual Average Record
Temperature  
Mean Temperature 60 °F -  
Max Temperature 77 °F 75 °F 82 °F (2013)
Min Temperature 44 °F 50 °F 44 °F (2012)
Degree Days  
Heating Degree Days 4    
Growing Degree Days 10 (Base 50)    
Moisture  
Dew Point 55 °F    
Average Humidity 86    
Maximum Humidity 100    
Minimum Humidity 61    
Precipitation  
Precipitation 0.00 in - - ()
Sea Level Pressure  
Sea Level Pressure 30.22 in    
Wind  
Wind Speed 1 mph (SE)    
Max Wind Speed 7 mph    
Max Gust Speed -    
Visibility 9 miles    
Events Thunderstorm    
Averages and records for this station are not official NWS values.
T = Trace of Precipitation, MM = Missing Value Source: NWS Daily Summary

Daily Weather History Graph

Daily Weather History Graph

Search for Another Location

Airport:

Trip Planner

Search our weather history database for the weather conditions in past years. The results will help you decide how hot, cold, wet, or windy it might be!

Date:

Astronomy

Oct. 11, 2012 Rise Set
Actual Time 6:57 AM CDT 6:26 PM CDT
Civil Twilight 6:32 AM CDT 6:51 PM CDT
Nautical Twilight 6:03 AM CDT 7:19 PM CDT
Astronomical Twilight 5:34 AM CDT 7:48 PM CDT
Moon 2:47 AM CDT (10/11) 3:52 PM CDT (10/11)
Length of Visible Light 12h 18m
Length of Day
11h 28m
Waning Crescent, 18% of the Moon is Illuminated
Oct 11
Waning Crescent
Oct 15
New
Oct 21
First Quarter
Oct 29
Full
Nov 6
Last Quarter

Hourly Weather History & Observations

Time (CDT) Temp. Dew Point Humidity Pressure Visibility Wind Dir Wind Speed Gust Speed Precip Events Conditions
12:15 AM 50.0 °F 50.0 °F 100% 30.21 in 10.0 mi Calm Calm - N/A   Clear
12:35 AM 51.8 °F 50.0 °F 94% 30.21 in 10.0 mi Calm Calm - N/A   Clear
12:55 AM 50.0 °F 48.2 °F 94% 30.21 in 10.0 mi Calm Calm - N/A   Clear
1:15 AM 50.0 °F 50.0 °F 100% 30.21 in 10.0 mi North 3.5 mph - N/A   Clear
1:35 AM 50.0 °F 48.2 °F 94% 30.20 in 10.0 mi Calm Calm - N/A   Clear
1:55 AM 50.0 °F 48.2 °F 94% 30.20 in 10.0 mi Calm Calm - N/A   Clear
2:15 AM 50.0 °F 48.2 °F 94% 30.20 in 10.0 mi Calm Calm - N/A   Clear
2:35 AM 50.0 °F 50.0 °F 100% 30.20 in 10.0 mi Calm Calm - N/A   Clear
2:55 AM 50.0 °F 50.0 °F 100% 30.20 in 10.0 mi Calm Calm - N/A   Clear
3:15 AM 50.0 °F 48.2 °F 94% 30.20 in 10.0 mi NNW 3.5 mph - N/A   Clear
3:35 AM 50.0 °F 48.2 °F 94% 30.19 in 10.0 mi Calm Calm - N/A   Clear
3:55 AM 48.2 °F 46.4 °F 93% 30.19 in 10.0 mi Calm Calm - N/A   Clear
4:15 AM 48.2 °F 46.4 °F 93% 30.19 in 10.0 mi Calm Calm - N/A   Clear
4:35 AM 46.4 °F 46.4 °F 100% 30.20 in 7.0 mi Calm Calm - N/A   Clear
4:55 AM 46.4 °F 46.4 °F 100% 30.21 in 10.0 mi Calm Calm - N/A   Clear
5:15 AM 46.4 °F 46.4 °F 100% 30.20 in 7.0 mi Calm Calm - N/A   Clear
5:35 AM 44.6 °F 44.6 °F 100% 30.20 in 7.0 mi Calm Calm - N/A   Clear
5:55 AM 46.4 °F 44.6 °F 93% 30.21 in 7.0 mi Calm Calm - N/A   Clear
6:15 AM 46.4 °F 44.6 °F 93% 30.22 in 7.0 mi Calm Calm - N/A   Clear
6:35 AM 44.6 °F 44.6 °F 100% 30.23 in 7.0 mi Calm Calm - N/A   Clear
6:55 AM 46.4 °F 46.4 °F 100% 30.24 in 10.0 mi Calm Calm - N/A   Clear
7:15 AM 46.4 °F 44.6 °F 93% 30.25 in 10.0 mi Calm Calm - N/A   Clear
7:35 AM 46.4 °F 46.4 °F 100% 30.25 in 7.0 mi Calm Calm - N/A   Clear
7:55 AM 48.2 °F 48.2 °F 100% 30.25 in 10.0 mi Calm Calm - N/A   Clear
8:15 AM 51.8 °F 50.0 °F 94% 30.26 in 10.0 mi Calm Calm - N/A   Clear
8:35 AM 53.6 °F 50.0 °F 88% 30.25 in 10.0 mi Calm Calm - N/A   Scattered Clouds
8:55 AM 55.4 °F 51.8 °F 88% 30.25 in 10.0 mi Calm Calm - N/A   Scattered Clouds
9:35 AM 59.0 °F 53.6 °F 82% 30.27 in 10.0 mi Calm Calm - N/A   Overcast
9:55 AM 60.8 °F 53.6 °F 77% 30.28 in 10.0 mi Calm Calm - N/A   Overcast
10:15 AM 60.8 °F 53.6 °F 77% 30.28 in 10.0 mi ESE 3.5 mph - N/A   Overcast
10:35 AM 62.6 °F 55.4 °F 77% 30.28 in 10.0 mi SSE 3.5 mph - N/A   Overcast
10:55 AM 64.4 °F 55.4 °F 73% 30.27 in 10.0 mi SE 4.6 mph - N/A   Overcast
11:15 AM 66.2 °F 55.4 °F 68% 30.27 in 10.0 mi SE 3.5 mph - N/A   Mostly Cloudy
11:35 AM 68.0 °F 57.2 °F 68% 30.26 in 10.0 mi SSE 4.6 mph - N/A   Clear
12:35 PM 71.6 °F 59.0 °F 64% 30.24 in 10.0 mi SSE 6.9 mph - N/A   Clear
12:55 PM 73.4 °F 59.0 °F 61% 30.24 in 10.0 mi Calm Calm - N/A   Scattered Clouds
1:15 PM 73.4 °F 60.8 °F 65% 30.24 in 10.0 mi South 4.6 mph - N/A   Mostly Cloudy
1:35 PM 73.4 °F 60.8 °F 65% 30.22 in 10.0 mi Calm Calm - N/A   Overcast
1:55 PM 73.4 °F 60.8 °F 65% 30.22 in 10.0 mi Calm Calm - N/A   Overcast
2:15 PM 73.4 °F 60.8 °F 65% 30.22 in 10.0 mi Calm Calm - N/A   Overcast
2:35 PM 73.4 °F 62.6 °F 69% 30.22 in 10.0 mi Calm Calm - N/A   Overcast
2:55 PM 73.4 °F 62.6 °F 69% 30.21 in 10.0 mi Calm Calm - N/A   Overcast
3:35 PM 77.0 °F 62.6 °F 61% 30.20 in 10.0 mi South 5.8 mph - N/A   Clear
3:55 PM 77.0 °F 62.6 °F 61% 30.20 in 10.0 mi Calm Calm - N/A   Clear
4:15 PM 77.0 °F 62.6 °F 61% 30.20 in 10.0 mi Calm Calm - N/A   Clear
4:55 PM 77.0 °F 64.4 °F 65% 30.19 in 10.0 mi Calm Calm - N/A   Clear
5:15 PM 77.0 °F 64.4 °F 65% 30.18 in 10.0 mi Calm Calm - N/A   Clear
5:55 PM 71.6 °F 68.0 °F 88% 30.19 in 10.0 mi Calm Calm - N/A   Mostly Cloudy
6:15 PM 71.6 °F 66.2 °F 83% 30.19 in 10.0 mi Calm Calm - N/A Thunderstorm Overcast
6:35 PM 69.8 °F 66.2 °F 88% 30.19 in 10.0 mi Calm Calm - N/A   Mostly Cloudy
6:55 PM 68.0 °F 64.4 °F 88% 30.19 in 10.0 mi Calm Calm - N/A   Scattered Clouds
7:15 PM 66.2 °F 64.4 °F 94% 30.20 in 10.0 mi Calm Calm - N/A   Clear
7:35 PM 64.4 °F 62.6 °F 94% 30.20 in 10.0 mi Calm Calm - N/A   Clear
8:15 PM 68.0 °F 62.6 °F 83% 30.21 in 10.0 mi East 4.6 mph - N/A   Clear
8:35 PM 68.0 °F 62.6 °F 83% 30.21 in 10.0 mi ESE 4.6 mph - N/A   Clear
9:15 PM 62.6 °F 60.8 °F 94% 30.22 in 7.0 mi Calm Calm - N/A   Clear
9:55 PM 62.6 °F 60.8 °F 94% 30.22 in 7.0 mi Calm Calm - N/A   Clear
10:15 PM 60.8 °F 60.8 °F 100% 30.22 in 5.0 mi Calm Calm - N/A   Clear
11:35 PM 60.8 °F 59.0 °F 94% 30.22 in 7.0 mi Calm Calm - N/A   Clear
11:55 PM 60.8 °F 60.8 °F 100% 30.22 in 7.0 mi Calm Calm - N/A   Clear